ALTAIR PATHFINDER (42711 NORAD) Tracking and Keplerian Element Data

This shows tracking and keplerian element data for the satellite.

Feedback or suggestion? Click here.




ElementValue
Catalog42711
NameALTAIR PATHFINDER
Epoch Orbit14645
Epoch Day341.54612871
Epoch Year2019
RAAN104.3875
Inclination51.6131
Eccentricity0.0007128
Argument of Perigee330.3172
Mean Anonmoly29.7448
Mean Motion16.37525667
Decay Rate0.05047864
L11 42711U 98067LS 19341.54612871 .05047864 12404-4 48655-3 0 9997
L22 42711 51.6131 104.3875 0007128 330.3172 29.7448 16.37525667146451



Live tracking and technical data element details for ALTAIR PATHFINDER (NORAD 42711). ALTAIR PATHFINDER can be tracked NOW for your location showing map with azimuth and elevation plus other details from your city location.







IsCatalogInMostPopularTable: catalog: 42711, numindb: 711
Update: records affected: 1



GetName: 42711 ALTAIR PATHFINDER

Hit Count: updated at: Sat, 06 Dec 2025 18:57:06 GMT